sat.trackr.live / text

‹ back to catalog

STARLINK-35246

NORAD 65660 · 2025-211J

PAYLOAD ACTIVE UNKNOWN

§ Identity

Operator
Country
US
Launch date
2025-09-19
Launch site
AFWTR
Launch vehicle
Mass (kg)
RCS (m²)

Purposes: comms

External: N2YO · Heavens-Above · Gunter

§ Orbital elements

Epoch: 2026-09-20T13:33:07.144992Z

Period
93.91 min
Inclination
97.2841°
Eccentricity
0.0000939
Mean motion
15.33456790 rev/d
Perigee alt
464.9 km
Apogee alt
466.2 km
Semi-major
6,843.6 km
B*
3.3203e-4
RAAN
303.8008°
Arg perigee
340.5357°
Mean anomaly
19.5850°
Rev number
5,653

§ Raw data

STARLINK-352461 65660U 25211J   26263.56466603  .00010663  00000+0  33203-3 0  99982 65660  97.2841 303.8008 0000939 340.5357  19.5850 15.33456790 56536

JSON: /api/v1/satellites/65660 · /tle

For live sub-satellite position, see the globe view (requires WebGL).

§ Visibility from observer

Set your observer location to see the next 7 days of passes ≥ 10°. The values pass through the URL so the page stays shareable.

No JS? Fill the form by hand. The geolocation button needs JavaScript.